THORAD AGENA D DEB, 4973

Orbit data source: Space-Track

THORAD AGENA D DEB, 4973 is space debris in SSO originally from a launch on Wed, 08 Apr 1970 UTC launched from the Air Force Western Test Range (AFWTR). Debris objects in space refer to the collection of defunct objects orbiting the Earth. Examples of debris include non-operational satellites, rocket bodies, and fragments generated from explosions, collisions, or faulty payload assembly.

Loading next visibility...
Identifier
4973, 1970-025GT
Orbit
SSO
Country
Flag of USUS
Related business
Manufacturer
Unknown
Mission
Spacecraft
Bus & Motor
Unknown
Mass
Unknown
Launch date (UTC)
1970-04-08 (56 years ago)
Launch vehicle
Unknown
Launch site
Air Force Western Test Range (AFWTR)
Object type
Payload
Rocket body
Debris
Shape & HBR
Unknown shape, 0.1 m
Radar Cross Section
Small (<0.1 m²)

Expand to show TLE details & history
Last TLE update: 14 hours ago

TLE from 14 hours ago
0 THORAD AGENA D DEB
1 04973U 70025GT  25348.80437716  .00001243  00000-0  76878-3 0  9994
2 04973 100.0132 109.1886 0090999 131.7702 229.1285 14.05447286814106
Epoch: 2025-12-14T19:18Z
TLE epoch observation values (Epoch: 2025-12-14T19:18:18.186Z)
Latitude
Longitude
95.90079°
Altitude
921.382 km
Speed
7.369 km/s
True Right ascension
07h 16m 45s
True Declination
0° 00' 00"
Sunlit
Object was in full shadow at epoch
Visualization orbit readout
Latitude
Unknown
Longitude
Unknown
Altitude
Unknown
Speed
Unknown
Apparent Right ascension
Unknown
Apparent Declination
Unknown
Sunlit
N/A
Visualization observer readout
Local Sidereal Time
07:47:16
Azimuth
Unknown
Elevation
Unknown
Doppler factor
Unknown
Orbital elements
Apogee altitude
938.215 km
Perigee altitude
806.26 km
Semi-major axis
7,250.374 km
Eccentricity
0.0091
Inclination
100.0132°
RAAN
109.1886°
Arg. of periapsis
131.7702°
True anomaly
228.34583°
Mean anomaly
229.1285°
Eccentric anomaly
228.73658°
Mean motion
3.51562 °/min
Orbital period
102.4 mins
BSTAR
0.00076878

Documentation

Showing up to 5 results
|